Back to catalog

COSMOS 1720

AliveMilitaryLEO
NORAD 16453·PAYLOAD·🇷🇺 Russia

Launched Jan 9, 1986 from Plesetsk Cosmodrome

Loading…

Next Passes (next 24 hours)

TLE

FreshSource: Space-Track

Epoch: Sep 14, 2026, 23:35 UTC

1 16453U 86002E   26257.98265773  .00000006  00000-0  14158-3 0  9992
2 16453  73.9889 143.8739 0027682 155.5047 217.0222 12.50636970857355

Track COSMOS 1720 in real time with AllMySat

Download on the App Store